Location: El Corozo
(10.5833°N, 66.9667°W)
Time: 10:58:06
(UTC+00:00)

Cosmos 1821 Rocket - Pass Details

Date: 23 May 2024
Orbit: 945 x 1003 km, 82.9° (Epoch: 24 June)

Event Time Altitude Azimuth Distance (km) Brightness Sun altitude
Exits shadow 08:43:08 - 181° (S) 3,664 6.7 -19.2°
Reaches altitude 10° 08:45:39 10° 179° (S) 2,714 6.1 -18.7°
Maximum altitude 08:51:51 80° 93° (E) 979 4.1 -17.3°
Drops below altitude 10° 08:57:58 10° 7° (N) 2,675 6.7 -15.9°
Sets 09:00:26 0° 6° (N) 3,614 7.4 -15.4°
